KUIPER-00058 (64518 NORAD) Tracking and Keplerian Element Data

This shows tracking and keplerian element data for the satellite.

Feedback or suggestion? Click here.




ElementValue
Catalog64518
NameKUIPER-00058
Epoch Orbit2836
Epoch Day353.88556086
Epoch Year2025
RAAN218.4224
Inclination51.9
Eccentricity0.0004874
Argument of Perigee66.096
Mean Anonmoly294.0512
Mean Motion14.7993096
Decay Rate2.183E-05
L11 64518U 25134U 25353.88556086 .00002183 00000+0 31536-3 0 9997
L22 64518 51.9000 218.4224 0004874 66.0960 294.0512 14.79930960 28364



Live tracking and technical data element details for KUIPER-00058 (NORAD 64518). KUIPER-00058 can be tracked NOW for your location showing map with azimuth and elevation plus other details from your city location.







IsCatalogInMostPopularTable: catalog: 64518, numindb: 7
Update: records affected: 1



GetName: 64518 KUIPER-00058

Hit Count: updated at: Tue, 21 Apr 2026 19:49:27 GMT